Previsão horária em Plissa

Hoje, 3 Março, Quarta-feira

Tempo Temperatura Precipitação Vento Pressão Humidade
00:00 -2°C° 0 mm 4 m/s 754 mmHg 83%
01:00 -3°C° 0 mm 4 m/s 754 mmHg 85%
02:00 -3°C° 0 mm 4 m/s 754 mmHg 87%
03:00 -3°C° 0 mm 4 m/s 754 mmHg 89%
04:00 -3°C° 0 mm 4 m/s 754 mmHg 90%
05:00 -4°C° 0 mm 4 m/s 754 mmHg 92%
06:00 -3°C° 0 mm 4 m/s 754 mmHg 90%
07:00 -3°C° 0 mm 4 m/s 754 mmHg 89%
08:00 -3°C° 0 mm 4 m/s 754 mmHg 87%
09:00 -2°C° 0 mm 4 m/s 754 mmHg 81%
10:00 0°C° 0 mm 4 m/s 753 mmHg 74%
11:00 +1°C° 0 mm 5 m/s 753 mmHg 68%
12:00 +2°C° 0 mm 5 m/s 753 mmHg 66%
13:00 +3°C° 0 mm 5 m/s 752 mmHg 64%
14:00 +5°C° 0 mm 5 m/s 752 mmHg 62%
15:00 +3°C° 0 mm 5 m/s 751 mmHg 65%
16:00 +2°C° 0 mm 5 m/s 750 mmHg 69%
17:00 +3°C° 0 mm 4 m/s 749 mmHg 72%
18:00 +1°C° 0 mm 5 m/s 749 mmHg 73%
19:00 0°C° 0 mm 5 m/s 748 mmHg 74%
20:00 0°C° 0 mm 5 m/s 748 mmHg 74%
21:00 -1°C° 0 mm 5 m/s 747 mmHg 76%
22:00 -1°C° 0 mm 5 m/s 746 mmHg 78%
23:00 -1°C° 0 mm 5 m/s 745 mmHg 80%

Amanhã, 4 Março, Quinta-feira

Tempo Temperatura Precipitação Vento Pressão Humidade
00:00 -1°C° 0 mm 5 m/s 745 mmHg 84%
01:00 -1°C° 0 mm 5 m/s 744 mmHg 88%
02:00 -2°C° 0 mm 4 m/s 744 mmHg 91%
03:00 -2°C° 0 mm 4 m/s 743 mmHg 91%
04:00 -2°C° 0 mm 4 m/s 742 mmHg 91%
05:00 -2°C° 0 mm 4 m/s 741 mmHg 91%
06:00 -2°C° 0 mm 4 m/s 740 mmHg 91%
07:00 -2°C° 0 mm 4 m/s 740 mmHg 90%
08:00 -2°C° 0 mm 4 m/s 739 mmHg 89%
09:00 -1°C° 0 mm 4 m/s 739 mmHg 89%
10:00 -1°C° 0 mm 4 m/s 738 mmHg 88%
11:00 -1°C° 0 mm 4 m/s 738 mmHg 87%
12:00 -1°C° 0 mm 4 m/s 738 mmHg 89%
13:00 -1°C° 0 mm 4 m/s 738 mmHg 91%
14:00 -1°C° 0 mm 4 m/s 738 mmHg 93%
15:00 -1°C° 0.3 mm 5 m/s 738 mmHg 94%
16:00 -2°C° 0.3 mm 5 m/s 738 mmHg 95%
17:00 -2°C° 0.3 mm 5 m/s 738 mmHg 95%
18:00 -3°C° 0.2 mm 4 m/s 738 mmHg 91%
19:00 -2°C° 0.2 mm 3 m/s 739 mmHg 86%
20:00 -4°C° 0.2 mm 3 m/s 740 mmHg 81%
21:00 -4°C° 0 mm 3 m/s 740 mmHg 82%
22:00 -5°C° 0 mm 3 m/s 741 mmHg 83%
23:00 -6°C° 0 mm 3 m/s 741 mmHg 84%

Depois de amanhã, 5 Março, Sexta-feira

Tempo Temperatura Precipitação Vento Pressão Humidade
00:00 -6°C° 0 mm 3 m/s 742 mmHg 83%
01:00 -7°C° 0 mm 3 m/s 742 mmHg 83%
02:00 -7°C° 0 mm 3 m/s 743 mmHg 82%
03:00 -6°C° 0 mm 2 m/s 743 mmHg 82%
04:00 -6°C° 0 mm 2 m/s 743 mmHg 83%
05:00 -6°C° 0 mm 2 m/s 743 mmHg 83%
06:00 -6°C° 0 mm 2 m/s 743 mmHg 81%
07:00 -6°C° 0 mm 2 m/s 744 mmHg 78%
08:00 -5°C° 0 mm 2 m/s 744 mmHg 76%
09:00 -4°C° 0 mm 2 m/s 744 mmHg 69%
10:00 -4°C° 0 mm 3 m/s 744 mmHg 62%
11:00 -2°C° 0 mm 3 m/s 744 mmHg 55%
12:00 -3°C° 0.2 mm 4 m/s 745 mmHg 56%
13:00 -3°C° 0.2 mm 4 m/s 745 mmHg 57%
14:00 -2°C° 0.2 mm 5 m/s 745 mmHg 58%
15:00 -4°C° 0.1 mm 5 m/s 745 mmHg 58%
16:00 -5°C° 0.1 mm 5 m/s 745 mmHg 58%
17:00 -6°C° 0.1 mm 6 m/s 745 mmHg 58%
18:00 -6°C° 0 mm 5 m/s 746 mmHg 59%
19:00 -7°C° 0 mm 4 m/s 747 mmHg 61%
20:00 -7°C° 0 mm 3 m/s 747 mmHg 62%
21:00 -6°C° 0 mm 2 m/s 748 mmHg 63%
22:00 -6°C° 0 mm 2 m/s 748 mmHg 64%
23:00 -4°C° 0 mm 1 m/s 749 mmHg 64%

6 Março, Sábado

Tempo Temperatura Precipitação Vento Pressão Humidade
00:00 -4°C° 0 mm 1 m/s 749 mmHg 65%
01:00 -6°C° 0 mm 1 m/s 749 mmHg 66%
02:00 -7°C° 0 mm 2 m/s 749 mmHg 67%
03:00 -7°C° 0 mm 2 m/s 750 mmHg 70%
04:00 -7°C° 0 mm 2 m/s 750 mmHg 72%
05:00 -7°C° 0 mm 2 m/s 750 mmHg 75%
06:00 -7°C° 0 mm 2 m/s 750 mmHg 76%
07:00 -7°C° 0 mm 2 m/s 751 mmHg 76%
08:00 -8°C° 0 mm 3 m/s 751 mmHg 77%
09:00 -7°C° 0 mm 3 m/s 751 mmHg 69%
10:00 -6°C° 0 mm 3 m/s 751 mmHg 61%
11:00 -7°C° 0 mm 4 m/s 751 mmHg 52%
12:00 -5°C° 0 mm 4 m/s 751 mmHg 51%
13:00 -4°C° 0 mm 4 m/s 751 mmHg 49%
14:00 -5°C° 0 mm 5 m/s 750 mmHg 47%
15:00 -5°C° 0 mm 5 m/s 749 mmHg 47%
16:00 -5°C° 0 mm 5 m/s 749 mmHg 47%
17:00 -5°C° 0 mm 6 m/s 748 mmHg 46%
18:00 -5°C° 0 mm 6 m/s 747 mmHg 51%
19:00 -6°C° 0 mm 7 m/s 746 mmHg 55%
20:00 -6°C° 0 mm 7 m/s 746 mmHg 59%
21:00 -6°C° 0 mm 8 m/s 745 mmHg 60%
22:00 -5°C° 0 mm 8 m/s 744 mmHg 61%
23:00 -5°C° 0 mm 9 m/s 743 mmHg 62%

7 Março, Domingo

Tempo Temperatura Precipitação Vento Pressão Humidade
00:00 -5°C° 0 mm 9 m/s 742 mmHg 66%
01:00 -5°C° 0 mm 9 m/s 741 mmHg 70%
02:00 -5°C° 0 mm 9 m/s 740 mmHg 74%
03:00 -4°C° 0 mm 9 m/s 738 mmHg 79%
04:00 -4°C° 0 mm 10 m/s 737 mmHg 84%
05:00 -4°C° 0 mm 10 m/s 736 mmHg 90%
06:00 -4°C° 0.2 mm 10 m/s 736 mmHg 91%
07:00 -4°C° 0.2 mm 10 m/s 736 mmHg 92%
08:00 -4°C° 0.2 mm 10 m/s 735 mmHg 93%
09:00 -4°C° 0.3 mm 9 m/s 736 mmHg 83%
10:00 -5°C° 0.3 mm 9 m/s 736 mmHg 72%
11:00 -5°C° 0.3 mm 8 m/s 736 mmHg 62%
12:00 -5°C° 0 mm 8 m/s 736 mmHg 55%
13:00 -5°C° 0 mm 8 m/s 736 mmHg 48%
14:00 -5°C° 0 mm 8 m/s 736 mmHg 42%
15:00 -4°C° 0 mm 7 m/s 736 mmHg 45%
16:00 -5°C° 0 mm 6 m/s 736 mmHg 48%
17:00 -5°C° 0 mm 5 m/s 736 mmHg 51%
18:00 -6°C° 0 mm 5 m/s 736 mmHg 55%
19:00 -6°C° 0 mm 6 m/s 737 mmHg 60%
20:00 -8°C° 0 mm 6 m/s 737 mmHg 64%
21:00 -8°C° 0 mm 6 m/s 737 mmHg 65%
22:00 -9°C° 0 mm 6 m/s 738 mmHg 66%
23:00 -9°C° 0 mm 6 m/s 738 mmHg 67%

8 Março, Segunda-feira

Tempo Temperatura Precipitação Vento Pressão Humidade
00:00 -9°C° 0.1 mm 6 m/s 739 mmHg 67%
01:00 -10°C° 0.1 mm 6 m/s 739 mmHg 66%
02:00 -11°C° 0.1 mm 7 m/s 740 mmHg 66%
03:00 -12°C° 0 mm 7 m/s 740 mmHg 68%
04:00 -12°C° 0 mm 7 m/s 741 mmHg 70%
05:00 -13°C° 0 mm 7 m/s 741 mmHg 73%
06:00 -13°C° 0 mm 7 m/s 742 mmHg 73%
07:00 -12°C° 0 mm 6 m/s 743 mmHg 74%
08:00 -14°C° 0 mm 6 m/s 744 mmHg 74%
09:00 -12°C° 0 mm 6 m/s 745 mmHg 70%
10:00 -12°C° 0 mm 6 m/s 745 mmHg 65%
11:00 -12°C° 0 mm 6 m/s 746 mmHg 60%
12:00 -12°C° 0 mm 6 m/s 746 mmHg 58%
13:00 -11°C° 0 mm 6 m/s 747 mmHg 55%
14:00 -12°C° 0 mm 7 m/s 747 mmHg 52%
15:00 -11°C° 0 mm 6 m/s 747 mmHg 51%
16:00 -11°C° 0 mm 6 m/s 748 mmHg 50%
17:00 -11°C° 0 mm 6 m/s 748 mmHg 49%
18:00 -11°C° 0 mm 5 m/s 748 mmHg 54%
19:00 -10°C° 0 mm 4 m/s 749 mmHg 58%
20:00 -10°C° 0 mm 3 m/s 749 mmHg 62%
21:00 -10°C° 0 mm 3 m/s 750 mmHg 65%
22:00 -9°C° 0 mm 2 m/s 750 mmHg 68%
23:00 -10°C° 0 mm 2 m/s 751 mmHg 71%
Mostrar mais

Necessitamos do seu Consentimento

A Meteoprog e os seus Fornecedores de Serviços podem armazenar e aceder a dados pessoais como cookies, identificadores do dispositivo ou outras tecnologias semelhantes existentes no seu dispositivo e processar estes dados para personalizar conteúdos e anúncios, assim como funcionalidades nas redes sociais e análise de tráfego.

  • Armazenar e/ou aceder a informações no seu dispositivo

    Os cookies, identificadores do dispositivo ou outras informações podem ser armazenados ou acedidos no seu dispositivo, para os fins acima indicados.

  • Anúncios e conteúdos personalizados, medição de anúncios e conteúdos, dados sobre o público-alvo e desenvolvimento de produtos

    Os anúncios e os conteúdos podem ser personalizados com base num perfil. Podem ser adicionados dados adicionais para uma maior personalização dos anúncios e dos conteúdos. A eficácia dos anúncios e dos conteúdos pode ser medida. Podem ser obtidas informações sobre o público que visualizou os anúncios e os conteúdos. Estes dados podem ser usados para desenvolver ou melhorar sistemas, softwares ou a experiência do utilizador.

Ao clicar em "Eu concordo”, permitirá o uso de cookies, identificadores do dispositivo e web beacons mencionados ou outras tecnologias semelhantes. As configurações do navegador do seu dispositivo podem ser alteradas.

Para certos fins, podem ser invocados interesses legítimos ao invés de consentimento. Pode ler mais informação sobre este assunto na nossa Política de Privacidade e Cookies.